Change the Weather History Date:

Wednesday, October 10, 2012

  Actual Average Record
Temperature  
Mean Temperature 75 °F -  
Max Temperature 84 °F 76 °F 90 °F (2014)
Min Temperature 66 °F 57 °F 45 °F (2000)
Cooling Degree Days 10    
Growing Degree Days 25 (Base 50)    
Moisture  
Dew Point 67 °F    
Average Humidity 78    
Maximum Humidity 100    
Minimum Humidity 49    
Precipitation  
Precipitation 0.00 in - - ()
Sea Level Pressure  
Sea Level Pressure 30.08 in    
Wind  
Wind Speed 5 mph (South)    
Max Wind Speed 12 mph    
Max Gust Speed -    
Visibility 8 miles    
Events      
Averages and records for this station are not official NWS values.
T = Trace of Precipitation, MM = Missing Value Source: NWS Daily Summary

Daily Weather History Graph

Daily Weather History Graph

Search for Another Location

Airport or City:

Trip Planner

Search our weather history database for the weather conditions in past years. The results will help you decide how hot, cold, wet, or windy it might be!

Date:

Astronomy

Oct. 10, 2012 Rise Set
Actual Time 7:32 AM CDT 7:06 PM CDT
Civil Twilight 7:08 AM CDT 7:30 PM CDT
Nautical Twilight 6:40 AM CDT 7:58 PM CDT
Astronomical Twilight 6:12 AM CDT 8:26 PM CDT
Moon 2:30 AM CDT (10/10) 3:52 PM CDT (10/10)
Length of Visible Light 12h 22m
Length of Day
11h 34m
Waning Crescent, 27% of the Moon is Illuminated
Oct 10
Waning Crescent
Oct 15
New
Oct 21
First Quarter
Oct 29
Full
Nov 6
Last Quarter

Hourly Weather History & Observations

Time (CDT) Temp. Heat Index Dew Point Humidity Pressure Visibility Wind Dir Wind Speed Gust Speed Precip Events Conditions
12:53 AM 66.9 °F - 62.1 °F 84% 29.98 in 9.0 mi South 3.5 mph - N/A   Partly Cloudy
1:08 AM 66.9 °F - 63.0 °F 87% 30.02 in 9.0 mi South 3.5 mph - N/A   Mostly Cloudy
1:43 AM 69.1 °F - 64.0 °F 84% 30.03 in 10.0 mi South 6.9 mph - N/A   Overcast
1:53 AM 69.1 °F - 64.0 °F 84% 29.99 in 9.0 mi South 6.9 mph - N/A   Overcast
2:53 AM 70.0 °F - 66.0 °F 87% 29.99 in 8.0 mi South 6.9 mph - N/A   Overcast
3:53 AM 71.1 °F - 66.9 °F 87% 30.00 in 8.0 mi Calm Calm - N/A   Overcast
4:04 AM 71.1 °F - 66.9 °F 87% 30.05 in 8.0 mi Calm Calm - N/A   Overcast
4:53 AM 71.1 °F - 66.9 °F 87% 30.00 in 6.0 mi SSE 3.5 mph - N/A   Overcast
5:53 AM 71.1 °F - 68.0 °F 90% 30.03 in 6.0 mi SSE 3.5 mph - N/A   Overcast
6:19 AM 70.0 °F - 68.0 °F 93% 30.08 in 5.0 mi South 3.5 mph - N/A   Overcast
6:29 AM 70.0 °F - 68.0 °F 93% 30.09 in 4.0 mi Calm Calm - N/A   Overcast
6:37 AM 71.1 °F - 68.0 °F 90% 30.09 in 4.0 mi Calm Calm - N/A   Overcast
6:53 AM 70.0 °F - 68.0 °F 93% 30.04 in 4.0 mi South 3.5 mph - N/A   Overcast
7:51 AM 69.8 °F - 69.8 °F 100% 30.11 in 2.0 mi South 4.6 mph - N/A   Overcast
7:53 AM 70.0 °F - 69.1 °F 97% 30.06 in 2.5 mi South 4.6 mph - N/A   Overcast
8:27 AM - - - N/A% 30.11 in 3.0 mi South 4.6 mph - N/A   Overcast
8:53 AM - - - N/A% 30.12 in 4.0 mi South 8.1 mph - N/A   Haze
9:37 AM 73.0 °F - 69.1 °F 87% 30.14 in 5.0 mi SSW 5.8 mph - N/A   Overcast
9:53 AM 73.9 °F - 70.0 °F 87% 30.11 in 5.0 mi Variable 4.6 mph - N/A   Overcast
10:00 AM 73.9 °F - 69.1 °F 85% 30.15 in 6.0 mi SW 6.9 mph - N/A   Haze
10:13 AM 73.9 °F - 69.1 °F 85% 30.16 in 7.0 mi South 6.9 mph - N/A   Overcast
10:53 AM 75.9 °F - 69.1 °F 79% 30.12 in 8.0 mi SSW 4.6 mph - N/A   Mostly Cloudy
11:03 AM 75.9 °F - 68.0 °F 76% 30.16 in 10.0 mi SSW 5.8 mph - N/A   Mostly Cloudy
11:11 AM 77.0 °F - 68.0 °F 74% 30.16 in 9.0 mi South 4.6 mph - N/A   Scattered Clouds
11:53 AM 78.1 °F - 66.9 °F 68% 30.12 in 10.0 mi South 8.1 mph - N/A   Mostly Cloudy
12:53 PM 80.1 °F 82.7 °F 68.0 °F 67% 30.11 in 10.0 mi SSE 9.2 mph - N/A   Overcast
1:01 PM 80.1 °F 82.7 °F 68.0 °F 67% 30.15 in 10.0 mi South 11.5 mph - N/A   Overcast
1:53 PM - - - N/A% 30.12 in 10.0 mi Variable 6.9 mph - N/A   Scattered Clouds
2:53 PM 82.0 °F 83.8 °F 64.9 °F 56% 30.04 in 9.0 mi Variable 5.8 mph - N/A   Mostly Cloudy
3:53 PM 84.0 °F 85.4 °F 64.0 °F 51% 30.02 in 10.0 mi SW 8.1 mph - N/A   Partly Cloudy
4:53 PM 84.0 °F 85.8 °F 64.9 °F 53% 30.01 in 10.0 mi South 4.6 mph - N/A   Scattered Clouds
5:53 PM 84.9 °F 86.1 °F 64.0 °F 49% 30.01 in 10.0 mi South 5.8 mph - N/A   Mostly Cloudy
6:53 PM 82.0 °F 83.8 °F 64.9 °F 56% 30.03 in 10.0 mi Variable 3.5 mph - N/A   Partly Cloudy
7:53 PM 79.0 °F - 64.9 °F 62% 30.05 in 10.0 mi Calm Calm - N/A   Mostly Cloudy
8:53 PM 77.0 °F - 64.9 °F 66% 30.11 in 10.0 mi East 3.5 mph - N/A   Clear
9:53 PM 77.0 °F - 64.9 °F 66% 30.08 in 10.0 mi North - - N/A   Mostly Cloudy
10:53 PM 75.0 °F - 66.9 °F 76% 30.09 in 10.0 mi SSE 5.8 mph - N/A   Partly Cloudy
11:43 PM 73.9 °F - 68.0 °F 82% 30.14 in 10.0 mi SSE 5.8 mph - N/A   Mostly Cloudy
11:53 PM 73.0 °F - 68.0 °F 84% 30.09 in 10.0 mi South 6.9 mph - N/A   Mostly Cloudy